Location: Leverkusen
(51.0459°N, 7.0192°E)
Time: 00:10:44
(UTC+01:00)

ISS - Pass Details

Date: 27 January 2019
Orbit: 403 x 411 km, 51.6° (Epoch: 17 February)

Event Time Altitude Azimuth Distance (km) Brightness Sun altitude
Rises 18:20:42 0° 230° (SW) 2,325 1.4 -10.6°
Reaches altitude 10° 18:22:51 10° 222° (SW) 1,469 0.0 -10.9°
Maximum altitude 18:25:56 38° 152° (SSE) 642 -2.9 -11.3°
Enters shadow 18:27:57 18° 92° (E) 1,075 -2.3 -11.7°
